| time (UTC) | temp F | wind direction | speed MPH | gust MPH | rain 1hr in | rain 24hr in | rain mn in | humidity % | barometer mb |
| 20260504110427 | 40 | 151 | 0.0 | 0.0 | 0.00 | 0.00 | 0.00 | 99 | |
| 20260504100344 | 41 | 151 | 0.0 | 0.0 | 0.00 | 0.00 | 0.00 | 99 | |
| 20260504081737 | 42 | 150 | 0.0 | 0.0 | 0.00 | 0.00 | 0.00 | 99 | |
| 20260504081233 | 42 | 150 | 0.0 | 0.0 | 0.00 | 0.00 | 0.00 | 98 | |
| 20260504080730 | 42 | 150 | 0.0 | 0.0 | 0.00 | 0.00 | 0.00 | 98 | |
| 20260504080226 | 42 | 150 | 0.0 | 0.0 | 0.00 | 0.00 | 0.00 | 98 | |
| 20260504070154 | 44 | 150 | 0.0 | 0.0 | 0.00 | 0.00 | 0.00 | 98 | |
| 20260504060120 | 44 | 150 | 0.0 | 0.0 | 0.00 | 0.00 | 0.00 | 97 | |
| 20260504050548 | 45 | 150 | 0.0 | 0.0 | 0.00 | 0.00 | 0.00 | 95 | |
| 20260504045541 | 45 | 150 | 0.0 | 0.0 | 0.00 | 0.00 | 0.00 | 94 | |
| 20260504045037 | 46 | 150 | 0.0 | 0.0 | 0.00 | 0.00 | 0.00 | 94 | |
| 20260504044535 | 46 | 150 | 0.0 | 0.0 | 0.00 | 0.00 | 0.00 | 93 | |
| 20260504044031 | 46 | 150 | 0.0 | 0.0 | 0.00 | 0.00 | 0.00 | 93 | |
| 20260504043528 | 46 | 150 | 0.0 | 0.0 | 0.00 | 0.00 | 0.00 | 92 | |
| 20260504043026 | 46 | 150 | 0.0 | 0.0 | 0.00 | 0.00 | 0.00 | 92 | |
| 20260504042523 | 46 | 150 | 0.0 | 0.0 | 0.00 | 0.00 | 0.00 | 91 | |
| 20260504042020 | 46 | 150 | 0.0 | 0.0 | 0.00 | 0.00 | 0.00 | 91 | |
| 20260504041515 | 47 | 150 | 0.0 | 0.0 | 0.00 | 0.00 | 0.00 | 91 | |
| 20260504041011 | 47 | 150 | 0.0 | 0.0 | 0.00 | 0.00 | 0.00 | 91 | |
| 20260504040509 | 47 | 150 | 0.0 | 0.0 | 0.00 | 0.00 | 0.00 | 91 | |
| 20260504040006 | 47 | 150 | 0.0 | 0.0 | 0.00 | 0.00 | 0.00 | 89 | |
| 20260504035503 | 47 | 150 | 0.0 | 0.0 | 0.00 | 0.00 | 0.00 | 89 | |
| 20260504034959 | 47 | 150 | 0.0 | 0.0 | 0.00 | 0.00 | 0.00 | 89 | |
| 20260504034457 | 47 | 150 | 0.0 | 0.0 | 0.00 | 0.00 | 0.00 | 88 | |
| 20260504033954 | 48 | 150 | 0.0 | 0.0 | 0.00 | 0.00 | 0.00 | 88 | |
| 20260504033451 | 48 | 150 | 0.0 | 0.0 | 0.00 | 0.00 | 0.00 | 88 | |
| 20260504032949 | 48 | 150 | 0.0 | 0.0 | 0.00 | 0.00 | 0.00 | 88 | |
| 20260504032445 | 48 | 150 | 0.0 | 0.0 | 0.00 | 0.00 | 0.00 | 87 | |
| 20260504031942 | 48 | 150 | 0.0 | 0.0 | 0.00 | 0.00 | 0.00 | 88 | |
| 20260504031439 | 48 | 150 | 0.0 | 0.0 | 0.00 | 0.00 | 0.00 | 87 | |
| 20260504030936 | 49 | 150 | 0.0 | 0.0 | 0.00 | 0.00 | 0.00 | 87 | |
| 20260504030433 | 49 | 150 | 0.0 | 0.0 | 0.00 | 0.00 | 0.00 | 86 | |
| 20260504025928 | 49 | 150 | 0.0 | 0.0 | 0.00 | 0.00 | 0.00 | 85 | |
| 20260504025426 | 49 | 150 | 0.0 | 0.0 | 0.00 | 0.00 | 0.00 | 84 | |
| 20260504024923 | 50 | 150 | 0.0 | 0.0 | 0.00 | 0.00 | 0.00 | 84 | |
| 20260504024420 | 50 | 150 | 0.0 | 0.0 | 0.00 | 0.00 | 0.00 | 83 | |
| 20260504023917 | 50 | 150 | 0.0 | 0.0 | 0.00 | 0.00 | 0.00 | 83 | |
| 20260504023413 | 50 | 149 | 0.0 | 0.0 | 0.00 | 0.00 | 0.00 | 83 | |
| 20260504022909 | 50 | 149 | 0.0 | 0.0 | 0.00 | 0.00 | 0.00 | 82 | |
| 20260504022405 | 51 | 149 | 0.0 | 0.0 | 0.00 | 0.00 | 0.00 | 81 | |
| 20260504021902 | 51 | 149 | 0.0 | 0.0 | 0.00 | 0.00 | 0.00 | 80 | |
| 20260504021359 | 51 | 149 | 0.0 | 0.0 | 0.00 | 0.00 | 0.00 | 78 | |
| 20260504020856 | 52 | 149 | 0.0 | 0.0 | 0.00 | 0.00 | 0.00 | 77 | |
| 20260504020353 | 52 | 148 | 0.0 | 0.0 | 0.00 | 0.00 | 0.00 | 76 | |
| 20260504015849 | 52 | 149 | 0.0 | 0.0 | 0.00 | 0.00 | 0.00 | 77 | |
| 20260504015345 | 52 | 183 | 0.0 | 0.0 | 0.00 | 0.00 | 0.00 | 75 | |
| 20260504014841 | 53 | 183 | 0.0 | 0.0 | 0.00 | 0.00 | 0.00 | 74 | |
| 20260504014337 | 53 | 183 | 0.0 | 0.0 | 0.00 | 0.00 | 0.00 | 73 | |
| 20260504013835 | 53 | 183 | 0.0 | 0.0 | 0.00 | 0.00 | 0.00 | 73 | |
| 20260504013333 | 53 | 183 | 0.0 | 0.0 | 0.00 | 0.00 | 0.00 | 72 | |
| 20260504012830 | 54 | 183 | 0.0 | 0.0 | 0.00 | 0.00 | 0.00 | 71 | |
| 20260504012327 | 54 | 183 | 0.0 | 0.0 | 0.00 | 0.00 | 0.00 | 70 | |
| 20260504011825 | 55 | 183 | 0.0 | 0.0 | 0.00 | 0.00 | 0.00 | 68 | |
| 20260504011321 | 55 | 183 | 0.0 | 0.0 | 0.00 | 0.00 | 0.00 | 68 | |
| 20260504010817 | 55 | 183 | 0.0 | 0.0 | 0.00 | 0.00 | 0.00 | 67 | |
| 20260504010313 | 56 | 183 | 0.0 | 0.0 | 0.00 | 0.00 | 0.00 | 66 | |
| 20260504005809 | 56 | 183 | 0.0 | 0.0 | 0.00 | 0.00 | 0.00 | 64 | |
| 20260504005306 | 57 | 183 | 0.0 | 0.0 | 0.00 | 0.00 | 0.00 | 61 | |
| 20260504004804 | 57 | 183 | 0.0 | 0.0 | 0.00 | 0.00 | 0.00 | 61 | |
| 20260504004301 | 58 | 183 | 0.0 | 0.0 | 0.00 | 0.00 | 0.00 | 61 | |
| 20260504003758 | 58 | 184 | 0.0 | 0.0 | 0.00 | 0.00 | 0.00 | 59 | |
| 20260504003255 | 59 | 183 | 0.0 | 0.0 | 0.00 | 0.00 | 0.00 | 57 | |
| 20260504002751 | 60 | 183 | 0.0 | 0.0 | 0.00 | 0.00 | 0.00 | 56 | |
| 20260504002248 | 61 | 184 | 0.0 | 0.0 | 0.00 | 0.00 | 0.00 | 54 | |
| 20260504001746 | 61 | 184 | 0.0 | 0.0 | 0.00 | 0.00 | 0.00 | 52 | |
| 20260504001243 | 62 | 183 | 0.0 | 0.0 | 0.00 | 0.00 | 0.00 | 51 | |
| 20260504000739 | 62 | 183 | 0.0 | 0.0 | 0.00 | 0.00 | 0.00 | 48 | |
| 20260504000236 | 63 | 184 | 0.0 | 0.0 | 0.00 | 0.00 | 0.00 | 46 | |
| 20260503235735 | 63 | 171 | 0.0 | 0.0 | 0.00 | 0.00 | 0.00 | 45 | |
| 20260503235231 | 64 | 185 | 0.0 | 0.0 | 0.00 | 0.00 | 0.00 | 44 | |
| 20260503234729 | 64 | 150 | 0.0 | 0.0 | 0.00 | 0.00 | 0.00 | 43 | |
| 20260503234227 | 64 | 140 | 0.0 | 1.0 | 0.00 | 0.00 | 0.00 | 43 | |
| 20260503233724 | 65 | 200 | 0.0 | 3.0 | 0.00 | 0.00 | 0.00 | 41 | |
| 20260503233219 | 65 | 301 | 1.0 | 2.0 | 0.00 | 0.00 | 0.00 | 41 | |
| 20260503232717 | 65 | 296 | 1.0 | 2.0 | 0.00 | 0.00 | 0.00 | 42 | |
| 20260503232214 | 65 | 241 | 0.0 | 3.0 | 0.00 | 0.00 | 0.00 | 44 | |
| 20260503231712 | 65 | 300 | 2.0 | 3.0 | 0.00 | 0.00 | 0.00 | 43 | |
| 20260503231208 | 65 | 179 | 0.0 | 0.0 | 0.00 | 0.00 | 0.00 | 43 | |
| 20260503230705 | 65 | 168 | 0.0 | 1.0 | 0.00 | 0.00 | 0.00 | 44 | |
| 20260503230202 | 66 | 160 | 0.0 | 1.0 | 0.00 | 0.00 | 0.00 | 43 | |
| 20260503225659 | 66 | 157 | 0.0 | 0.0 | 0.00 | 0.00 | 0.00 | 42 | |
| 20260503225159 | 66 | 7 | 2.0 | 6.0 | 0.00 | 0.00 | 0.00 | 42 | |
| 20260503224657 | 66 | 303 | 6.0 | 9.0 | 0.00 | 0.00 | 0.00 | 41 | |
| 20260503224155 | 66 | 333 | 1.0 | 2.0 | 0.00 | 0.00 | 0.00 | 41 | |
| 20260503223652 | 66 | 101 | 1.0 | 2.0 | 0.00 | 0.00 | 0.00 | 40 | |
| 20260503223149 | 66 | 259 | 2.0 | 2.0 | 0.00 | 0.00 | 0.00 | 40 | |
| 20260503222646 | 66 | 180 | 0.0 | 3.0 | 0.00 | 0.00 | 0.00 | 41 | |
| 20260503222143 | 66 | 236 | 1.0 | 1.0 | 0.00 | 0.00 | 0.00 | 40 | |
| 20260503221642 | 66 | 253 | 2.0 | 6.0 | 0.00 | 0.00 | 0.00 | 39 | |
| 20260503221139 | 67 | 164 | 0.0 | 1.0 | 0.00 | 0.00 | 0.00 | 42 | |
| 20260503220635 | 66 | 305 | 2.0 | 4.0 | 0.00 | 0.00 | 0.00 | 39 | |
| 20260503220132 | 67 | 166 | 0.0 | 2.0 | 0.00 | 0.00 | 0.00 | 43 | |
| 20260503215630 | 67 | 226 | 1.0 | 4.0 | 0.00 | 0.00 | 0.00 | 40 | |
| 20260503215126 | 67 | 296 | 2.0 | 4.0 | 0.00 | 0.00 | 0.00 | 42 | |
| 20260503214625 | 67 | 190 | 1.0 | 4.0 | 0.00 | 0.00 | 0.00 | 41 | |
| 20260503214120 | 67 | 154 | 0.0 | 2.0 | 0.00 | 0.00 | 0.00 | 43 | |
| 20260503213620 | 67 | 298 | 3.0 | 6.0 | 0.00 | 0.00 | 0.00 | 41 | |
| 20260503213116 | 67 | 168 | 0.0 | 2.0 | 0.00 | 0.00 | 0.00 | 43 | |
| 20260503212614 | 67 | 182 | 1.0 | 4.0 | 0.00 | 0.00 | 0.00 | 44 | |
| 20260503212111 | 67 | 155 | 0.0 | 1.0 | 0.00 | 0.00 | 0.00 | 44 | |
| 20260503211608 | 67 | 304 | 3.0 | 4.0 | 0.00 | 0.00 | 0.00 | 42 | |
| 20260503211103 | 67 | 178 | 0.0 | 2.0 | 0.00 | 0.00 | 0.00 | 44 | |
| 20260503210600 | 67 | 147 | 0.0 | 1.0 | 0.00 | 0.00 | 0.00 | 46 | |
| 20260503210056 | 66 | 332 | 4.0 | 6.0 | 0.00 | 0.00 | 0.00 | 44 | |
| 20260503205553 | 66 | 169 | 1.0 | 3.0 | 0.00 | 0.00 | 0.00 | 43 | |
| 20260503205049 | 67 | 272 | 3.0 | 7.0 | 0.00 | 0.00 | 0.00 | 41 | |
| 20260503204546 | 67 | 150 | 0.0 | 3.0 | 0.00 | 0.00 | 0.00 | 42 | |
| 20260503204043 | 67 | 7 | 1.0 | 2.0 | 0.00 | 0.00 | 0.00 | 44 | |
| 20260503203540 | 67 | 169 | 0.0 | 2.0 | 0.00 | 0.00 | 0.00 | 45 | |
| 20260503203037 | 67 | 162 | 1.0 | 1.0 | 0.00 | 0.00 | 0.00 | 42 | |
| 20260503202535 | 67 | 180 | 1.0 | 4.0 | 0.00 | 0.00 | 0.00 | 42 | |
| 20260503202033 | 67 | 188 | 1.0 | 2.0 | 0.00 | 0.00 | 0.00 | 40 | |
| 20260503201531 | 67 | 173 | 0.0 | 2.0 | 0.00 | 0.00 | 0.00 | 42 | |
| 20260503201028 | 67 | 160 | 0.0 | 2.0 | 0.00 | 0.00 | 0.00 | 41 | |
| 20260503200524 | 68 | 174 | 0.0 | 1.0 | 0.00 | 0.00 | 0.00 | 39 | |
| 20260503200021 | 68 | 197 | 1.0 | 2.0 | 0.00 | 0.00 | 0.00 | 36 | |
| 20260503195518 | 67 | 179 | 1.0 | 4.0 | 0.00 | 0.00 | 0.00 | 37 | |
| 20260503195015 | 68 | 268 | 7.0 | 9.0 | 0.00 | 0.00 | 0.00 | 38 | |
| 20260503194512 | 68 | 171 | 0.0 | 1.0 | 0.00 | 0.00 | 0.00 | 43 | |
| 20260503194012 | 67 | 277 | 2.0 | 3.0 | 0.00 | 0.00 | 0.00 | 41 | |
| 20260503193508 | 67 | 332 | 1.0 | 3.0 | 0.00 | 0.00 | 0.00 | 41 | |
| 20260503193004 | 68 | 200 | 0.0 | 1.0 | 0.00 | 0.00 | 0.00 | 42 | |
| 20260503192500 | 68 | 146 | 0.0 | 1.0 | 0.00 | 0.00 | 0.00 | 44 | |
| 20260503191955 | 69 | 106 | 1.0 | 6.0 | 0.00 | 0.00 | 0.00 | 39 | |
| 20260503191453 | 68 | 174 | 0.0 | 1.0 | 0.00 | 0.00 | 0.00 | 44 | |
| 20260503190949 | 68 | 92 | 1.0 | 1.0 | 0.00 | 0.00 | 0.00 | 41 | |
| 20260503190447 | 69 | 158 | 0.0 | 3.0 | 0.00 | 0.00 | 0.00 | 41 | |
| 20260503185944 | 68 | 154 | 2.0 | 3.0 | 0.00 | 0.00 | 0.00 | 41 | |
| 20260503185440 | 67 | 161 | 1.0 | 2.0 | 0.00 | 0.00 | 0.00 | 44 | |
| 20260503184940 | 68 | 174 | 2.0 | 2.0 | 0.00 | 0.00 | 0.00 | 41 | |
| 20260503184436 | 68 | 326 | 2.0 | 3.0 | 0.00 | 0.00 | 0.00 | 39 | |
| 20260503183933 | 68 | 215 | 2.0 | 2.0 | 0.00 | 0.00 | 0.00 | 44 | |
| 20260503183429 | 68 | 102 | 1.0 | 2.0 | 0.00 | 0.00 | 0.00 | 43 | |
| 20260503182926 | 67 | 275 | 1.0 | 2.0 | 0.00 | 0.00 | 0.00 | 41 | |
| 20260503182425 | 66 | 181 | 1.0 | 2.0 | 0.00 | 0.00 | 0.00 | 41 | |
| 20260503181922 | 67 | 160 | 1.0 | 3.0 | 0.00 | 0.00 | 0.00 | 43 | |
| 20260503181419 | 67 | 166 | 0.0 | 2.0 | 0.00 | 0.00 | 0.00 | 42 | |
| 20260503180915 | 66 | 132 | 1.0 | 2.0 | 0.00 | 0.00 | 0.00 | 45 | |
| 20260503180414 | 66 | 194 | 1.0 | 4.0 | 0.00 | 0.00 | 0.00 | 44 | |
| 20260503175911 | 65 | 74 | 2.0 | 3.0 | 0.00 | 0.00 | 0.00 | 43 | |
| 20260503175409 | 66 | 186 | 1.0 | 1.0 | 0.00 | 0.00 | 0.00 | 45 | |
| 20260503174904 | 65 | 186 | 1.0 | 2.0 | 0.00 | 0.00 | 0.00 | 47 | |
| 20260503174403 | 66 | 176 | 1.0 | 2.0 | 0.00 | 0.00 | 0.00 | 44 | |
| 20260503173902 | 65 | 99 | 1.0 | 1.0 | 0.00 | 0.00 | 0.00 | 47 | |
| 20260503173359 | 65 | 195 | 1.0 | 3.0 | 0.00 | 0.00 | 0.00 | 45 | |
| 20260503172856 | 65 | 297 | 2.0 | 3.0 | 0.00 | 0.00 | 0.00 | 42 | |
| 20260503172353 | 65 | 212 | 1.0 | 1.0 | 0.00 | 0.00 | 0.00 | 47 | |
| 20260503171849 | 65 | 159 | 1.0 | 2.0 | 0.00 | 0.00 | 0.00 | 47 | |
| 20260503171346 | 64 | 51 | 1.0 | 2.0 | 0.00 | 0.00 | 0.00 | 45 | |
| 20260503170844 | 64 | 343 | 1.0 | 2.0 | 0.00 | 0.00 | 0.00 | 47 | |
| 20260503170340 | 64 | 159 | 0.0 | 2.0 | 0.00 | 0.00 | 0.00 | 46 | |
| 20260503150732 | 59 | 54 | 1.0 | 2.0 | 0.00 | 0.00 | 0.00 | 55 | |
| 20260503150228 | 58 | 37 | 4.0 | 4.0 | 0.00 | 0.00 | 0.00 | 57 | |
| 20260503140153 | 55 | 174 | 0.0 | 1.0 | 0.00 | 0.00 | 0.00 | 68 | |
| 20260503131122 | 51 | 134 | 0.0 | 1.0 | 0.00 | 0.00 | 0.00 | 84 | |
| 20260503130620 | 51 | 148 | 0.0 | 0.0 | 0.00 | 0.00 | 0.00 | 83 | |
| 20260503130118 | 51 | 148 | 0.0 | 1.0 | 0.00 | 0.00 | 0.00 | 84 |